Weather History for KELO - January, 2014

Change the Weather History Date:

Sunday, January 19, 2014

  Actual Average Record
Temperature  
Mean Temperature 12 °F -  
Max Temperature 24 °F 14 °F 30 °F (1997)
Min Temperature 1 °F -1 °F -32 °F (2004)
Degree Days  
Heating Degree Days 52    
Moisture  
Dew Point 11 °F    
Average Humidity 82    
Maximum Humidity 93    
Minimum Humidity 68    
Precipitation  
Precipitation 0.00 in - - ()
Sea Level Pressure  
Sea Level Pressure 29.46 in    
Wind  
Wind Speed 8 mph (NW)    
Max Wind Speed 15 mph    
Max Gust Speed 21 mph    
Visibility 10 miles    
Events Snow    
Averages and records for this station are not official NWS values.
T = Trace of Precipitation, MM = Missing Value Source: NWS Daily Summary

Daily Weather History Graph

Daily Weather History Graph

Search for Another Location

Airport or City:

Trip Planner

Search our weather history database for the weather conditions in past years. The results will help you decide how hot, cold, wet, or windy it might be!

Date:

Astronomy

Jan. 19, 2014 Rise Set
Actual Time 7:48 AM CST 4:48 PM CST
Civil Twilight 7:14 AM CST 5:22 PM CST
Nautical Twilight 6:35 AM CST 6:00 PM CST
Astronomical Twilight 5:59 AM CST 6:37 PM CST
Moon 8:46 PM CST (1/19) 9:01 AM CST (1/19)
Length of Visible Light 10h 08m
Length of Day
8h 59m
Waning Gibbous, 89% of the Moon is Illuminated
Jan 19
Waning Gibbous
Jan 23
Last Quarter
Jan 30
New
Feb 6
First Quarter
Feb 14
Full

Hourly Weather History & Observations

Time (CST) Temp. Windchill Dew Point Humidity Pressure Visibility Wind Dir Wind Speed Gust Speed Precip Events Conditions
12:13 AM 19.4 °F 7.9 °F 17.6 °F 93% 29.37 in 10.0 mi WSW 10.4 mph - N/A   Overcast
12:33 AM 21.2 °F 7.8 °F 17.6 °F 86% 29.35 in 10.0 mi WSW 15.0 mph 20.7 mph N/A   Overcast
12:52 AM 21.2 °F 8.9 °F 19.4 °F 93% 29.34 in 10.0 mi WSW 12.7 mph 19.6 mph N/A Snow Light Snow
1:13 AM 21.2 °F 9.5 °F 19.4 °F 93% 29.34 in 10.0 mi West 11.5 mph 18.4 mph N/A   Overcast
1:33 AM 21.2 °F 11.7 °F 19.4 °F 93% 29.33 in 10.0 mi WSW 8.1 mph - N/A Snow Light Snow
1:53 AM 21.2 °F 10.1 °F 19.4 °F 93% 29.32 in 10.0 mi WSW 10.4 mph - N/A Snow Light Snow
2:13 AM 21.2 °F 10.9 °F 19.4 °F 93% 29.33 in 10.0 mi WSW 9.2 mph 16.1 mph N/A   Overcast
2:33 AM 21.2 °F 10.9 °F 19.4 °F 93% 29.33 in 10.0 mi WSW 9.2 mph - N/A   Overcast
2:53 AM 21.2 °F 10.1 °F 19.4 °F 93% 29.33 in 10.0 mi West 10.4 mph - N/A   Overcast
3:12 AM 21.2 °F 10.1 °F 19.4 °F 93% 29.33 in 10.0 mi WSW 10.4 mph - N/A   Overcast
3:33 AM 21.2 °F 10.9 °F 19.4 °F 93% 29.33 in 10.0 mi West 9.2 mph - N/A   Overcast
3:53 AM 23.0 °F 13.9 °F 19.4 °F 86% 29.33 in 10.0 mi West 8.1 mph 16.1 mph N/A   Overcast
4:12 AM 23.0 °F 13.1 °F 21.2 °F 93% 29.33 in 10.0 mi West 9.2 mph - N/A   Overcast
4:33 AM 23.0 °F 12.4 °F 21.2 °F 93% 29.32 in 10.0 mi West 10.4 mph - N/A   Overcast
4:53 AM 23.0 °F 14.7 °F 21.2 °F 93% 29.32 in 10.0 mi West 6.9 mph - N/A   Overcast
5:12 AM 23.0 °F 13.9 °F 21.2 °F 93% 29.33 in 10.0 mi West 8.1 mph - N/A   Overcast
5:33 AM 23.0 °F 13.9 °F 21.2 °F 93% 29.33 in 10.0 mi West 8.1 mph - N/A   Overcast
5:53 AM 23.0 °F 14.7 °F 21.2 °F 93% 29.34 in 10.0 mi West 6.9 mph - N/A   Overcast
6:12 AM 23.0 °F 14.7 °F 21.2 °F 93% 29.35 in 10.0 mi WNW 6.9 mph - N/A   Overcast
6:33 AM 24.8 °F 16.1 °F 21.2 °F 86% 29.35 in 10.0 mi NNW 8.1 mph - N/A   Overcast
6:53 AM 24.8 °F 16.9 °F 21.2 °F 86% 29.35 in 10.0 mi NW 6.9 mph 16.1 mph N/A   Overcast
7:12 AM 23.0 °F 13.9 °F 19.4 °F 86% 29.36 in 10.0 mi NNW 8.1 mph 18.4 mph N/A   Overcast
7:33 AM 23.0 °F 15.8 °F 19.4 °F 86% 29.37 in 10.0 mi NW 5.8 mph 16.1 mph N/A   Overcast
7:53 AM 21.2 °F 10.1 °F 19.4 °F 93% 29.38 in 10.0 mi NNW 10.4 mph 16.1 mph N/A   Overcast
8:12 AM 21.2 °F 10.9 °F 19.4 °F 93% 29.39 in 10.0 mi NW 9.2 mph - N/A   Overcast
8:33 AM 19.4 °F 9.5 °F 17.6 °F 93% 29.40 in 10.0 mi North 8.1 mph - N/A   Overcast
8:53 AM 19.4 °F 11.5 °F 15.8 °F 86% 29.40 in 10.0 mi North 5.8 mph - N/A   Overcast
9:12 AM 19.4 °F 11.5 °F 15.8 °F 86% 29.40 in 10.0 mi NNW 5.8 mph - N/A   Overcast
9:33 AM 19.4 °F 12.8 °F 14.0 °F 80% 29.40 in 10.0 mi North 4.6 mph - N/A   Overcast
9:53 AM 19.4 °F 12.8 °F 14.0 °F 80% 29.40 in 10.0 mi North 4.6 mph - N/A Snow Light Snow
10:12 AM 19.4 °F 10.4 °F 12.2 °F 74% 29.41 in 10.0 mi NW 6.9 mph - N/A Snow Light Snow
10:33 AM 19.4 °F 14.3 °F 12.2 °F 74% 29.41 in 10.0 mi NNW 3.5 mph - N/A Snow Light Snow
10:53 AM 17.6 °F 9.3 °F 12.2 °F 79% 29.41 in 10.0 mi North 5.8 mph - N/A Snow Light Snow
11:12 AM 17.6 °F 10.7 °F 12.2 °F 79% 29.41 in 10.0 mi North 4.6 mph - N/A Snow Light Snow
11:33 AM 19.4 °F 12.8 °F 10.4 °F 68% 29.42 in 10.0 mi NNW 4.6 mph - N/A   Overcast
11:53 AM 19.4 °F 12.8 °F 10.4 °F 68% 29.44 in 10.0 mi NNW 4.6 mph - N/A   Mostly Cloudy
12:12 PM 17.6 °F 8.2 °F 10.4 °F 73% 29.43 in 10.0 mi NW 6.9 mph - N/A Snow Light Snow
12:33 PM 17.6 °F 9.3 °F 10.4 °F 73% 29.43 in 10.0 mi North 5.8 mph - N/A   Scattered Clouds
12:53 PM 17.6 °F 8.2 °F 10.4 °F 73% 29.43 in 10.0 mi North 6.9 mph - N/A   Mostly Cloudy
1:13 PM 17.6 °F 5.0 °F 8.6 °F 68% 29.43 in 10.0 mi NNW 11.5 mph - N/A   Overcast
1:33 PM 15.8 °F 5.1 °F 8.6 °F 73% 29.44 in 10.0 mi NNW 8.1 mph - N/A   Overcast
1:53 PM 15.8 °F 8.6 °F 8.6 °F 73% 29.43 in 10.0 mi North 4.6 mph - N/A   Overcast
2:12 PM 17.6 °F 6.4 °F 8.6 °F 68% 29.43 in 10.0 mi NNW 9.2 mph - N/A   Overcast
2:33 PM 15.8 °F 8.6 °F 8.6 °F 73% 29.44 in 10.0 mi NNW 4.6 mph - N/A   Overcast
2:52 PM 15.8 °F 8.6 °F 8.6 °F 73% 29.45 in 10.0 mi North 4.6 mph - N/A Snow Light Snow
3:13 PM 15.8 °F 10.2 °F 8.6 °F 73% 29.46 in 10.0 mi NNW 3.5 mph - N/A Snow Light Snow
3:33 PM 14.0 °F 5.1 °F 6.8 °F 73% 29.48 in 10.0 mi North 5.8 mph - N/A   Overcast
3:52 PM 14.0 °F - 6.8 °F 73% 29.49 in 10.0 mi Calm Calm - N/A   Overcast
4:13 PM 14.0 °F 5.1 °F 6.8 °F 73% 29.51 in 10.0 mi North 5.8 mph - N/A Snow Light Snow
4:32 PM 12.2 °F 2.9 °F 6.8 °F 79% 29.53 in 10.0 mi NNW 5.8 mph - N/A   Overcast
4:53 PM 12.2 °F 1.7 °F 6.8 °F 79% 29.54 in 10.0 mi NNW 6.9 mph - N/A   Overcast
5:13 PM 12.2 °F 4.3 °F 6.8 °F 79% 29.54 in 3.0 mi NNW 4.6 mph - N/A Snow Light Snow
5:33 PM 10.4 °F 2.2 °F 6.8 °F 85% 29.55 in 2.0 mi NNW 4.6 mph - N/A Snow Light Snow
5:53 PM 10.4 °F 2.2 °F 6.8 °F 85% 29.56 in 2.0 mi NNE 4.6 mph - N/A Snow Light Snow
6:13 PM 8.6 °F 2.0 °F 5.0 °F 85% 29.56 in 5.0 mi North 3.5 mph - N/A Snow Light Snow
6:33 PM 6.8 °F - 3.2 °F 85% 29.58 in 7.0 mi Calm Calm - N/A Snow Light Snow
6:53 PM 6.8 °F -3.5 °F 1.4 °F 79% 29.58 in 10.0 mi North 5.8 mph - N/A   Mostly Cloudy
7:13 PM 6.8 °F -0.1 °F 1.4 °F 79% 29.58 in 10.0 mi NNW 3.5 mph - N/A   Overcast
7:33 PM 6.8 °F -2.0 °F 1.4 °F 79% 29.59 in 10.0 mi North 4.6 mph - N/A   Overcast
7:53 PM 6.8 °F -3.5 °F -0.4 °F 72% 29.60 in 10.0 mi NNE 5.8 mph - N/A   Overcast
8:13 PM 5.0 °F -2.1 °F -2.2 °F 72% 29.61 in 10.0 mi North 3.5 mph - N/A   Overcast
8:33 PM 3.2 °F -4.2 °F -2.2 °F 78% 29.61 in 10.0 mi North 3.5 mph - N/A   Overcast
8:53 PM 3.2 °F - -2.2 °F 78% 29.62 in 10.0 mi Calm Calm - N/A   Overcast
9:13 PM 3.2 °F -6.2 °F -2.2 °F 78% 29.63 in 10.0 mi NNE 4.6 mph - N/A   Overcast
9:33 PM 1.4 °F -8.3 °F -2.2 °F 85% 29.63 in 10.0 mi NNE 4.6 mph - N/A   Overcast
9:53 PM 1.4 °F - -4.0 °F 78% 29.63 in 10.0 mi Calm Calm - N/A   Overcast
10:13 PM 1.4 °F -6.2 °F -4.0 °F 78% 29.64 in 10.0 mi North 3.5 mph - N/A   Overcast
10:32 PM 1.4 °F -6.2 °F -4.0 °F 78% 29.67 in 10.0 mi NNW 3.5 mph - N/A   Overcast
10:53 PM 1.4 °F -9.9 °F -4.0 °F 78% 29.67 in 10.0 mi North 5.8 mph - N/A   Overcast
11:12 PM 1.4 °F - -4.0 °F 78% 29.67 in 10.0 mi Calm Calm - N/A   Overcast
11:33 PM 1.4 °F - -4.0 °F 78% 29.68 in 10.0 mi Calm Calm - N/A   Overcast
11:52 PM 1.4 °F -8.3 °F -4.0 °F 78% 29.69 in 10.0 mi North 4.6 mph - N/A   Overcast